Flag for U.S.A. Weather past 2 weeks in Bristol, Tennessee, U.S.A.

61 °F


Feels Like: 61 °F
Forecast: 55 / 66 °F
Wind: No wind

Location: Abingdon-Southwest Abingdon

Current Time: Oct 10, 2015 at 11:15:29 AM

Latest Report: Oct 10, 2015 at 10:55 AM

Visibility: 10 mi

Pressure: 30.09 "Hg (28.33 "Hg at 510m altitude)

Humidity: 90%

Dew point: 58 °F

Location of BristolLocation

Historic Weather in Bristol — Graph


Bristol temperature yesterday

Maximum temperature yesterday: 76 °F (at 3:15 PM)
Minimum temperature yesterday: 58 °F (at 2:35 AM)
Average temperature yesterday: 64 °F

Past Weeks' High & Low Weather Summary

High81 °F (Sep 28, 2:55 PM)96% (Sep 29, 10:15 PM)30.25 "Hg (Sep 29, 10:15 PM)
Low51 °F (Oct 7, 7:35 AM)35% (Oct 7, 2:55 PM)29.82 "Hg (Oct 3, 4:15 AM)
Average65 °F77%30.05 "Hg
* Reported Sep 25 10:15 AM — Oct 10 10:15 AM, Bristol, Weather by CustomWeather, © 2015

Note: Actual official high and low records may vary slightly from our data, if they occured in-between our weather recording intervals... More about our weather records


Bristol weather history for previous 24 hours

Time TempWeatherWind HumidityBarometerVisibility
10:15 AM
Sat, Oct 10
60 °FOvercast.No wind91%30.09 "Hg10 mi
9:55 AM60 °FMore clouds than sun.No wind91%30.09 "Hg10 mi
9:35 AM60 °FDrizzle. Overcast.No wind91%30.08 "Hg10 mi
9:15 AM60 °FDrizzle. Overcast.No wind92%30.08 "Hg10 mi
8:55 AM60 °FDrizzle. Overcast.No wind91%30.08 "Hg10 mi
8:35 AM60 °FDrizzle. Mostly cloudy.No wind91%30.08 "Hg10 mi
8:15 AM60 °FDrizzle. Overcast.No wind91%30.07 "Hg10 mi
7:55 AM60 °FOvercast.3 mph91%30.07 "Hg10 mi
7:35 AM60 °FOvercast.No wind92%30.07 "Hg10 mi
7:15 AM60 °FDrizzle. Overcast.No wind93%30.06 "Hg10 mi
6:55 AM60 °FDrizzle. Overcast.No wind93%30.06 "Hg10 mi
6:15 AM60 °FDrizzle. Overcast.No wind92%30.07 "Hg10 mi
5:55 AM60 °FDrizzle. Overcast.No wind94%30.06 "Hg10 mi
5:35 AM61 °FDrizzle. Mostly cloudy.No wind95%30.06 "Hg7 mi
5:15 AM61 °FDrizzle. Mostly cloudy.No wind95%30.06 "Hg7 mi
4:55 AM61 °FRain. Overcast.3 mph96%30.06 "Hg5 mi
4:35 AM61 °FRain. Mostly cloudy.3 mph96%30.07 "Hg5 mi
4:15 AM61 °FRain. Mostly cloudy.5 mph96%30.07 "Hg4 mi
3:55 AM61 °FLight rain. Mostly cloudy.3 mph96%30.07 "Hg4 mi
3:15 AM61 °FRain. Mostly cloudy.3 mph96%30.07 "Hg4 mi
2:55 AM61 °FRain. Mostly cloudy.No wind96%30.07 "Hg7 mi
2:15 AM61 °FMostly cloudy.No wind95%30.08 "Hg7 mi
1:55 AM61 °FOvercast.No wind95%30.07 "Hg10 mi
1:35 AM61 °FOvercast.3 mph96%30.08 "Hg10 mi
1:15 AM61 °FOvercast.3 mph96%30.08 "Hg7 mi
12:55 AM61 °FMostly cloudy.No wind96%30.08 "Hg7 mi
12:35 AM61 °FMostly cloudy.No wind95%30.08 "Hg7 mi
12:15 AM61 °FPassing clouds.No wind95%30.08 "Hg7 mi
11:55 PM
Fri, Oct 9
61 °FClear.No wind95%30.09 "Hg10 mi
11:35 PM61 °FClear.3 mph95%30.09 "Hg10 mi
11:15 PM61 °FPassing clouds.3 mph96%30.09 "Hg10 mi
10:55 PM61 °FPassing clouds.No wind95%30.08 "Hg10 mi
10:35 PM61 °FPassing clouds.3 mph95%30.09 "Hg10 mi
10:15 PM62 °FPartly cloudy.5 mph94%30.10 "Hg10 mi
9:55 PM62 °FPartly cloudy.3 mph93%30.09 "Hg10 mi
9:15 PM62 °FLight rain. Overcast.3 mph93%30.09 "Hg10 mi
8:55 PM62 °FMostly cloudy.No wind92%30.09 "Hg10 mi
8:35 PM62 °FLight rain. Mostly cloudy.No wind89%30.09 "Hg10 mi
8:15 PM63 °FLight rain. Mostly cloudy.No wind85%30.09 "Hg10 mi
7:55 PM63 °FThunderstorms. More clouds than sun.No wind83%30.09 "Hg10 mi
7:35 PM63 °FThunderstorms. More clouds than sun.3 mph84%30.07 "Hg10 mi
7:15 PM63 °FStrong thunderstorms. Cloudy.5 mph87%30.07 "Hg5 mi
6:55 PM69 °FThundershowers. Cloudy.15 mph71%30.06 "HgN/A
6:35 PM71 °FThundershowers. Cloudy.5 mph69%30.03 "Hg10 mi
6:15 PM72 °FMore clouds than sun.5 mph66%30.02 "Hg10 mi
5:15 PM73 °FScattered clouds.7 mph63%30.03 "Hg10 mi
4:55 PM73 °FPartly sunny.13 mph62%30.02 "Hg10 mi
4:15 PM74 °FScattered clouds.10 mph61%30.03 "Hg10 mi
3:55 PM74 °FScattered clouds.10 mph61%30.04 "Hg10 mi
3:15 PM76 °FBroken clouds.10 mph59%30.06 "Hg10 mi
2:55 PM74 °FSunny.10 mph58%30.06 "Hg10 mi
2:15 PM74 °FPartly sunny.10 mph63%30.09 "Hg10 mi
1:55 PM72 °FBroken clouds.7 mph67%30.10 "Hg10 mi
1:35 PM72 °FPartly sunny.10 mph69%30.11 "Hg10 mi
1:15 PM72 °FBroken clouds.9 mph71%30.12 "Hg10 mi
12:55 PM70 °FMostly cloudy.7 mph77%30.13 "Hg10 mi
12:35 PM69 °FMostly cloudy.8 mph80%30.14 "Hg10 mi
12:15 PM68 °FOvercast.7 mph80%30.15 "Hg10 mi
11:55 AM67 °FOvercast.8 mph80%30.15 "Hg10 mi
11:15 AM66 °FOvercast.6 mph86%30.16 "Hg10 mi
Weather by CustomWeather, © 2015

See weather overviewHow to use our weather pages